METEOR 2-8 DEB

Satellite information

Favourite Embed

Satellite Type and Status

DEBRISIN ORBIT

Key statistics

Satellite METEOR 2-8 DEB at a glance.

Uptime

15918

Days in orbit

Revolutions

≈ 14.4

Per day

Orbit

LEO

Low Earth Orbit

Inclination

82.5

Latest

Satellite identification and parameters

Extended collection of information and parameters for METEOR 2-8 DEB.

Object identification

Identified? True

Debris? True

Object name: METEOR 2-8 DEB

International designator: 1982-025E

Object number (NORAD): 36320

Object ID (CCSDS): 36320

Country: COMMONWEALTH OF INDEPENDENT STATES (CIS)

Current information (Y/N): Y

RCS size: SMALL

Orbital parameters

Period: 99.993 minutes

Inclination: 82.4802 deg

SMA: 7136.284 km

Apoapsis: 761.677 km

Periapsis: 754.622 km

RAAN: 1.7724 deg

Eccentricy: 0.00049426

Argument of periapsis: 291.03 deg

Mean anomaly: 69.0362 deg

Mean motion: 14.4010627 rev/day

Mean motion (dot): 0.0002218 rev/day2

B* drag term: 0.0070054797 1/REarth

Two-line elements (TLE)

Creation date: Sept. 30, 2025, 3:31 a.m.

Reference frame: TEME

Reference center: EARTH

Epoch: Sept. 29, 2025, 12:41 p.m. UTC

TLE line 0: 0 METEOR 2-8 DEB

TLE line 1: 1 36320U 82025E 25272.52906894 .00022180 00000-0 70055-2 0 9994

TLE line 2: 2 36320 82.4802 1.7724 0004943 291.0300 69.0362 14.40106270630635

Live tracking on map

Real-time ground track for satellite METEOR 2-8 DEB.

In-orbit conjunctions

A list of the most updated potential collisions computed for object METEOR 2-8 DEB.

Target Orbit TCA Probability of collision Miss distance Type
CZ-2D DEB SSO 2025-06-26 23:43:00 0.0001328463 335.0 (m) DEBRIS
IRIDIUM 38 LEO 2025-05-15 19:54:11 0.000123892 930.0 (m) PAYLOAD
CZ-6A DEB LEO 2025-01-18 06:43:50 0.00123105 25.0 (m) DEBRIS
CZ-6A DEB SSO 2025-01-16 19:29:49 0.0001307063 154.0 (m) DEBRIS
FENGYUN 1C DEB SSO 2024-09-26 10:34:28 0.000264342 693.0 (m) DEBRIS

Associated space launch

Second generation soviet meteorological satellite

METEOR 2-8 DEB was lifted into orbit during the mission ‘Tsiklon-3 | Meteor-2 8’, on board a Tsiklon-3 space rocket.

The launch took place on March 25, 1982, 9:50 a.m. from 32/1.

For more information about the launch, click the button.

Launch to space Tsiklon-3 | Meteor-2 8
Tsiklon-3 | Meteor-2 8

Agency: N/A

Status: Launch Successful

Launch date: March 25, 1982, 9:50 a.m. UTC

Rocket: Tsiklon-3

Launch pad: 32/1

Location: Plesetsk Cosmodrome, Russian Federation

...

Latest news about this satellite

There are no fresh news available about this satellite. Check back as we update our databases every day.


Newsletter sign-up

Weekly statistics, charts and insights to help you stay on top of the space industry.